TIARET current weather conditions

sailwx.info

Air temperature 18.0° C
Dewpoint 4.0° C

Last reported at 2014-Jul-23 00:00 UTC.
Time now 2014-Jul-23 01:39 UTC

Location: N 35°15' E 001°26'.
View on Google Maps.

See reports from other nearby stations

  
Tides and Currents Weather Stations Pressure Air Temp Water Temp Dewpoint Dewpoint Depression Visibility Wind Speed Wind Dir Waves Ship Positions
date/time (UTC)wind fromknots sea level pressurealtimeterstation pressurevisibilityair tempwater tempwave heightnotes
2014-Jul-23 00:00 18.0
2014-Jul-22 23:00 300 4 19.0
2014-Jul-22 22:00 310 4 22.0
2014-Jul-22 21:00 23.0
2014-Jul-22 20:00 300 8 26.0
2014-Jul-22 19:00 310 8 30.0
2014-Jul-22 18:00 300 12 32.0
2014-Jul-22 17:00 300 10 33.0
2014-Jul-22 16:00 360 8 33.0
2014-Jul-22 15:00 240 8 33.0
2014-Jul-22 14:00 290 8 33.0
2014-Jul-22 13:00 030 10 32.0
2014-Jul-22 12:00 31.0
2014-Jul-22 11:00 29.0
2014-Jul-22 10:00 28.0
2014-Jul-22 09:00 360 5 26.0
2014-Jul-22 08:00 280 8 24.0
2014-Jul-22 07:00 19.0
2014-Jul-22 06:00 15.0
2014-Jul-22 05:00 15.0
2014-Jul-22 04:00 15.0
2014-Jul-22 03:00 180 8 16.0
2014-Jul-22 02:00 180 4 16.0
2014-Jul-22 01:00 16.0
2014-Jul-22 00:00 17.0
2014-Jul-21 23:00 20.0
2014-Jul-21 22:00 21.0
2014-Jul-21 21:00 320 6 23.0
2014-Jul-21 20:00 320 8 25.0
2014-Jul-21 19:00 300 10 28.0
2014-Jul-21 18:00 290 8 30.0
2014-Jul-21 17:00 280 6 31.0
2014-Jul-21 16:00 290 6 31.0
2014-Jul-21 15:00 280 11 31.0
2014-Jul-21 14:00 320 10 31.0
2014-Jul-21 13:00 280 7 30.0
2014-Jul-21 12:00 090 7 28.0
2014-Jul-21 11:00 360 5 27.0
2014-Jul-21 10:00 360 5 26.0
2014-Jul-21 09:00 350 5 25.0
2014-Jul-21 08:00 22.0
2014-Jul-21 07:00 18.0
2014-Jul-21 06:00 5.414.0
2014-Jul-21 03:00 270 5 5.416.0
2014-Jul-21 02:00 260 3 5.416.0
2014-Jul-21 01:00 5.417.0